[[{"header":{"parameterUnit":"m.s-1","parameterCategory":1,"la1":30.2991,"la2":30.254,"lo1":-89.0895,"lo2":-89.0444,"dx":0.0017,"dy":0.0017,"nx":28,"ny":28,"refTime":"2022-12-09T15:00:00:Z","depth":0,"parameterNumber":2,"parameterNumberName":"U-component_of_WINDS"},"data":[0,0,0,0,0,0,0,0,0,0,0,0,0,0,0,0,0,0,0,0,0,0,0,0,0,0,0,0,0,0,0,0,0,0,0,0,0,0,0,0,0,0,0,0,0,0,0,0,0,0,0,0,0,0,0,0,0,0,2.0748,2.0748,0,2.0777,2.0777,2.0777,2.0753,2.0752,2.0751,2.075,2.0783,2.0785,2.0786,0,0,0,0,0,0,0,0,0,0,0,0,0,2.0676,2.0677,2.0748,2.0748,2.0748,2.0777,2.0777,2.0778,2.0754,2.0752,2.0751,2.075,2.0782,2.0784,2.0787,0,0,0,0,0,0,0,0,0,0,0,0,0,2.0706,2.0678,2.0748,2.074,2.0739,2.0777,2.0777,2.0778,2.0754,2.0752,2.0751,2.0749,2.0782,2.0784,2.0787,2.0834,0,0,2.0795,2.0796,0,0,0,0,0,0,0,0,2.0704,2.0709,2.0741,2.074,2.074,2.076,2.0764,2.0797,2.0754,2.0748,2.075,2.0749,2.0777,2.078,2.0788,2.0836,2.0837,2.0795,2.0797,2.0798,2.0799,0,0,0,0,0,0,0,2.0702,2.0707,2.0759,2.0741,2.0741,2.0736,2.0739,2.077,2.0771,2.0749,2.0747,2.0751,2.0776,2.0786,2.0789,2.0838,2.0795,2.0798,2.0799,2.08,2.0928,2.0929,0,0,0,0,0,0,2.0701,2.0706,2.0758,2.076,2.0718,2.0739,2.0742,2.0755,2.077,2.0771,2.0752,2.075,2.0782,2.0786,2.079,2.0847,2.0798,2.0801,2.0802,2.0926,2.0928,2.093,0,0,0,0,0,0,2.0699,2.0705,2.0757,2.0733,2.0739,2.0742,2.0757,2.0756,2.0766,2.0773,2.0773,2.0761,2.0781,2.0786,2.0824,2.0848,2.0802,2.0804,2.0924,2.0927,2.0929,2.0962,0,0,0,0,0,0,2.0697,2.0705,2.0722,2.0733,2.074,2.0789,2.0758,2.0758,2.0771,2.0768,2.0782,2.0783,2.078,2.082,2.0826,2.0851,2.0807,2.0922,2.0925,2.0928,2.0959,2.0965,2.0971,0,0,0,0,0,2.0695,2.073,2.0723,2.0729,2.0761,2.079,2.0794,2.079,2.0773,2.079,2.0795,2.0782,2.0845,2.0824,2.0831,2.0857,2.092,2.0924,2.0928,2.0956,2.0964,2.0971,0,0,0,0,0,0,2.0721,2.0731,2.0723,2.0763,2.0776,2.0786,2.0808,2.0799,2.0817,2.0814,2.0809,2.0812,2.0852,2.0858,2.0835,2.0905,2.088,2.0886,2.0899,2.0906,2.0913,2.091,2.0809,0,0,0,0,0,2.0732,2.0754,2.0762,2.0796,2.0803,2.0805,2.0817,2.0813,2.0827,2.0832,2.0839,2.0854,2.0877,2.0893,2.0914,2.096,2.0964,2.0982,2.0988,2.0993,2.0998,2.1024,2.1033,2.0943,2.0943,2.0943,0,0,2.0754,2.0762,2.0776,2.0802,2.0811,2.0835,2.0809,2.0835,2.0854,2.0836,2.0872,2.0878,2.0895,2.0937,2.0956,2.0944,2.1024,2.0998,2.1002,2.1004,2.1029,2.1038,2.1045,2.0946,2.0945,2.0945,0,0,2.0805,2.0814,2.0844,2.0854,2.0869,2.0871,2.0878,2.0891,2.0894,2.093,2.0918,2.0941,2.098,2.0993,2.1004,2.1065,2.1054,2.1072,2.1104,2.113,2.1137,2.1143,2.1165,2.1173,2.1077,2.1077,2.1077,0,2.083,2.0865,2.086,2.0888,2.0901,2.0887,2.0918,2.0929,2.0951,2.096,2.0947,2.0997,2.1007,2.1053,2.1068,2.1078,2.1087,2.107,2.1136,2.1143,2.1148,2.1169,2.1178,2.1079,2.1079,2.1079,2.1079,0,2.0896,2.0921,2.0943,2.0964,2.098,2.1009,2.1011,2.1028,2.1023,2.1027,2.1065,2.1077,2.1101,2.1112,2.1108,2.1158,2.115,2.1137,2.1111,2.1159,2.1179,2.1187,2.1082,2.1081,2.1081,2.108,0,0,2.0962,2.0982,2.0991,2.1001,2.1018,2.1038,2.1069,2.1092,2.1107,2.1124,2.1149,2.1185,2.1173,2.1186,2.1184,2.1207,2.1255,2.1191,2.1191,2.1202,2.1313,2.1322,2.1331,2.1249,2.1251,2.1252,2.1311,0,2.1014,2.1065,2.1064,2.1112,2.1136,2.1125,2.1151,2.1166,2.1171,2.1193,2.1199,2.1225,2.1207,2.1215,2.1237,2.1245,2.1277,2.1241,2.1274,2.1275,2.1269,2.1341,2.1351,2.1406,2.1319,2.132,2.1321,0,2.1081,2.11,2.1151,2.1166,2.1176,2.12,2.1223,2.1244,2.1261,2.1264,2.128,2.1275,2.1308,2.1283,2.1329,2.1304,2.1318,2.1325,2.1327,2.1328,2.13,2.1345,2.1423,2.1431,2.1333,2.1332,2.1331,0,2.1124,2.1163,2.1198,2.1208,2.1227,2.1244,2.1253,2.1269,2.1285,2.1305,2.1316,2.134,2.1354,2.1374,2.1376,2.1358,2.1423,2.1398,2.1427,2.1427,2.1439,2.1438,2.152,2.145,2.145,2.145,2.145,0,2.1182,2.1213,2.1218,2.124,2.1276,2.1275,2.1311,2.1319,2.1334,2.1358,2.1351,2.1374,2.1377,2.1402,2.1404,2.1443,2.1449,2.1452,2.1453,2.1452,2.1452,2.146,2.1456,2.1452,2.1452,2.1451,2.1451,0,2.1235,2.1239,2.1277,2.1293,2.1299,2.1324,2.1339,2.136,2.1366,2.1397,2.1405,2.1414,2.1443,2.1448,2.1483,2.1485,2.153,2.1527,2.1524,2.1523,2.1551,2.1548,2.164,2.1653,2.1576,2.1576,2.1577,0,2.127,2.1294,2.1314,2.1329,2.1339,2.1365,2.138,2.1382,2.1399,2.1423,2.1442,2.1471,2.1493,2.1541,2.1551,2.1578,2.1575,2.1606,2.1579,2.1578,2.1575,2.1573,2.1576,2.161,2.1611,2.1612,2.1612,0,2.1333,2.1335,2.1357,2.1382,2.1401,2.142,2.1439,2.1452,2.1457,2.1477,2.1507,2.1524,2.156,2.1589,2.1616,2.1627,2.1621,2.1621,2.1629,2.1628,2.1625,2.1627,2.1537,2.1618,2.1618,2.1617,2.1617,2.1617,2.1378,2.14,2.1417,2.1443,2.1458,2.1476,2.1497,2.1507,2.1531,2.1559,2.156,2.1593,2.1613,2.1649,2.1662,2.1689,2.1679,2.169,2.1693,2.1696,2.1698,2.1622,2.1694,2.1694,2.1694,2.1693,2.1693,0,2.144,2.1452,2.1476,2.1502,2.1524,2.1517,2.1538,2.1556,2.1584,2.1603,2.1626,2.1661,2.169,2.1704,2.1733,2.1752,2.175,2.1759,2.1757,2.176,2.1705,2.1695,2.176,2.176,2.176,2.176,2.176,2.176,2.1475,2.1511,2.1516,2.156,2.1572,2.1603,2.1616,2.1633,2.1648,2.1688,2.1711,2.172,2.1738,2.1769,2.1795,2.1799,2.181,2.182,2.1823,2.1771,2.1764,2.1757,2.1748,2.1823,2.1823,2.1875,2.1876,2.1876]},{"header":{"parameterUnit":"m.s-1","parameterCategory":1,"la1":30.2991,"la2":30.254,"lo1":-89.0895,"lo2":-89.0444,"dx":0.0017,"dy":0.0017,"nx":28,"ny":28,"refTime":"2022-12-09T15:00:00:Z","depth":0,"parameterNumber":3,"parameterNumberName":"V-component_of_WINDS"},"data":[0,0,0,0,0,0,0,0,0,0,0,0,0,0,0,0,0,0,0,0,0,0,0,0,0,0,0,0,0,0,0,0,0,0,0,0,0,0,0,0,0,0,0,0,0,0,0,0,0,0,0,0,0,0,0,0,0,0,1.1167,1.1167,0,1.1247,1.1248,1.1249,1.129,1.129,1.129,1.129,1.1369,1.1371,1.1374,0,0,0,0,0,0,0,0,0,0,0,0,0,1.1044,1.1046,1.1166,1.1168,1.1169,1.1247,1.1248,1.1249,1.129,1.129,1.129,1.129,1.1369,1.1371,1.1374,0,0,0,0,0,0,0,0,0,0,0,0,0,1.1108,1.1047,1.1166,1.1198,1.1202,1.1247,1.1248,1.125,1.129,1.129,1.129,1.129,1.1368,1.1371,1.1374,1.1393,0,0,1.1384,1.1385,0,0,0,0,0,0,0,0,1.1104,1.1113,1.1193,1.1196,1.12,1.1259,1.1234,1.1297,1.129,1.1256,1.129,1.129,1.1332,1.1338,1.1353,1.1396,1.14,1.1384,1.1386,1.1387,1.1388,0,0,0,0,0,0,0,1.11,1.1109,1.1198,1.1194,1.1198,1.1207,1.1217,1.1246,1.1293,1.1259,1.1262,1.1272,1.1334,1.135,1.1355,1.1401,1.1384,1.1387,1.1389,1.139,1.1462,1.1462,0,0,0,0,0,0,1.1091,1.1105,1.1196,1.1201,1.1152,1.121,1.122,1.124,1.1293,1.1301,1.1271,1.1273,1.1345,1.1352,1.1358,1.1383,1.1387,1.139,1.1392,1.1462,1.1462,1.1462,0,0,0,0,0,0,1.1088,1.1098,1.1193,1.1154,1.1167,1.1212,1.1234,1.1241,1.1257,1.1302,1.131,1.1279,1.1345,1.1354,1.1384,1.1386,1.1392,1.1394,1.1462,1.1462,1.1462,1.1433,0,0,0,0,0,0,1.1084,1.1097,1.1106,1.1154,1.1169,1.1218,1.1234,1.1243,1.1263,1.1266,1.1312,1.1319,1.1346,1.1379,1.1387,1.1391,1.1397,1.1462,1.1462,1.1462,1.1434,1.1432,1.143,0,0,0,0,0,1.108,1.1094,1.1106,1.1117,1.118,1.1218,1.1226,1.1257,1.1263,1.1271,1.13,1.1318,1.1385,1.1382,1.1391,1.1396,1.1462,1.1462,1.1462,1.1434,1.1432,1.143,0,0,0,0,0,0,1.1044,1.1101,1.1115,1.1145,1.1176,1.1225,1.1236,1.1254,1.1284,1.1285,1.1322,1.1332,1.1358,1.138,1.1375,1.1416,1.1425,1.1427,1.1401,1.1399,1.1397,1.1392,1.1399,0,0,0,0,0,1.104,1.1067,1.1114,1.1136,1.1151,1.1191,1.1208,1.123,1.1263,1.1276,1.1307,1.1338,1.1366,1.1384,1.1412,1.1437,1.1447,1.1445,1.1443,1.1441,1.1443,1.1456,1.1456,1.1462,1.1462,1.1462,0,0,1.1031,1.1065,1.108,1.113,1.1157,1.1182,1.1202,1.1228,1.1247,1.128,1.131,1.1334,1.137,1.1398,1.1411,1.1417,1.1443,1.1441,1.144,1.1442,1.1456,1.1456,1.1455,1.1462,1.1462,1.1462,0,0,1.1029,1.1057,1.1079,1.1105,1.1146,1.1172,1.1176,1.1222,1.1239,1.127,1.1295,1.1317,1.1365,1.139,1.1409,1.1414,1.1431,1.1422,1.1413,1.1426,1.1426,1.1426,1.1427,1.1427,1.1423,1.1423,1.1423,0,1.1013,1.1054,1.1087,1.1113,1.1133,1.1164,1.1186,1.1209,1.1256,1.1269,1.1275,1.1335,1.1362,1.1395,1.1396,1.1411,1.1417,1.1418,1.1423,1.1423,1.1424,1.1425,1.1426,1.1422,1.1422,1.1422,1.1422,0,1.1031,1.1059,1.1071,1.1117,1.1139,1.1162,1.1198,1.1216,1.1235,1.126,1.129,1.1323,1.1358,1.1368,1.1386,1.1403,1.1405,1.1417,1.1426,1.1421,1.1423,1.1424,1.142,1.142,1.1421,1.1421,0,0,1.101,1.1073,1.1077,1.1098,1.1144,1.1165,1.1189,1.1224,1.1239,1.1269,1.129,1.1329,1.1339,1.1361,1.1382,1.1393,1.1395,1.1403,1.1405,1.14,1.1414,1.1405,1.1406,1.1406,1.1406,1.1407,1.1411,0,1.1014,1.1059,1.1089,1.1122,1.1148,1.1177,1.1197,1.1227,1.125,1.1274,1.13,1.1327,1.1339,1.1352,1.1365,1.1392,1.1398,1.1392,1.1424,1.1425,1.1414,1.1407,1.1398,1.1401,1.1412,1.1412,1.1412,0,1.1025,1.1056,1.1091,1.1134,1.1146,1.1164,1.1198,1.1221,1.1254,1.127,1.1294,1.1316,1.134,1.1347,1.1381,1.1376,1.1391,1.1406,1.1407,1.1411,1.1419,1.1411,1.1402,1.1403,1.1414,1.1414,1.1414,0,1.1005,1.1055,1.1083,1.1099,1.115,1.1162,1.1183,1.1217,1.1236,1.1265,1.1278,1.1309,1.1326,1.1349,1.1378,1.1381,1.1409,1.1418,1.1422,1.1421,1.1427,1.1426,1.142,1.1436,1.1436,1.1436,1.1436,0,1.1007,1.1027,1.1075,1.1092,1.1115,1.1149,1.117,1.1194,1.1223,1.1244,1.1271,1.129,1.1327,1.135,1.1373,1.1397,1.1404,1.1417,1.1423,1.1415,1.1413,1.1425,1.1426,1.1436,1.1436,1.1436,1.1436,0,1.0989,1.1022,1.1054,1.1099,1.111,1.1125,1.1163,1.118,1.1205,1.1231,1.1239,1.1277,1.1305,1.1336,1.1375,1.139,1.1412,1.1421,1.1401,1.1405,1.1406,1.1406,1.1408,1.141,1.1424,1.1424,1.1424,0,1.0988,1.1004,1.1051,1.1067,1.1088,1.1114,1.1134,1.1167,1.1186,1.1225,1.1237,1.1267,1.1293,1.1337,1.1367,1.1396,1.1405,1.1404,1.141,1.1401,1.1405,1.1404,1.1405,1.1402,1.1402,1.1402,1.1402,0,1.0982,1.0997,1.1025,1.1058,1.108,1.1108,1.1136,1.1147,1.1186,1.1205,1.1235,1.1255,1.1295,1.1324,1.1357,1.1377,1.1395,1.14,1.1402,1.1394,1.1382,1.1388,1.1397,1.1399,1.14,1.14,1.14,1.14,1.0973,1.0989,1.1024,1.1053,1.1078,1.1103,1.1121,1.1148,1.1173,1.1209,1.1226,1.1255,1.1287,1.1333,1.1353,1.1375,1.1381,1.1385,1.1386,1.1386,1.1384,1.1378,1.1382,1.1382,1.1382,1.1382,1.1382,0,1.0969,1.0992,1.1019,1.1058,1.108,1.1096,1.1128,1.1145,1.1171,1.12,1.1225,1.1258,1.1287,1.1319,1.1349,1.136,1.1369,1.1367,1.1366,1.1371,1.1377,1.1372,1.1359,1.1359,1.1359,1.1359,1.1359,1.1359,1.0969,1.0996,1.1015,1.1054,1.1078,1.1107,1.1124,1.1147,1.117,1.1206,1.123,1.1251,1.1281,1.1313,1.1339,1.1348,1.1357,1.1353,1.1363,1.1369,1.137,1.1372,1.1368,1.1354,1.1354,1.1355,1.1355,1.1355]}]]